sat.trackr.live / text

‹ back to catalog

STARLINK-37366

NORAD 68807 · 2026-089F

PAYLOAD ACTIVE UNKNOWN

§ Identity

Operator
Country
US
Launch date
2026-04-23
Launch site
AFWTR
Launch vehicle
Mass (kg)
RCS (m²)

Purposes: comms

External: N2YO · Heavens-Above · Gunter

§ Orbital elements

Epoch: 2026-05-25T02:50:48.149376Z

Period
91.41 min
Inclination
97.2832°
Eccentricity
0.0002216
Mean motion
15.75256999 rev/d
Perigee alt
342.4 km
Apogee alt
345.4 km
Semi-major
6,722.0 km
B*
1.1712e-3
RAAN
351.7556°
Arg perigee
71.9858°
Mean anomaly
288.1649°
Rev number
506

§ Raw data

STARLINK-373661 68807U 26089F   26145.11861284  .00178785  00000+0  11712-2 0  99922 68807  97.2832 351.7556 0002216  71.9858 288.1649 15.75256999  5060

JSON: /api/v1/satellites/68807 · /tle

For live sub-satellite position, see the globe view (requires WebGL).

§ Visibility from observer

Set your observer location to see the next 7 days of passes ≥ 10°. The values pass through the URL so the page stays shareable.

No JS? Fill the form by hand. The geolocation button needs JavaScript.